Terug naar catalogus

METEOR 2-5 DEB

LostPO
NORAD 40213·DEBRIS·🇷🇺 Russia

Gelanceerd Oct 31, 1979 vanaf Plesetsk Cosmodrome

Loading…

Volgende Passages (komende 24 uur)

TLE

VerouderdSource: Space-Track

Epoch: Aug 28, 2022, 07:08 UTC

1 40213U 79095CL  22240.29769771  .00002631  00000-0  10930-2 0  9995
2 40213  81.2066  69.5588 0008489  29.5968  88.6849 14.26213626577481

Volg METEOR 2-5 DEB in realtime met AllMySat

Download on the App Store